Location: Cuiry
(49.3858°N, 3.7708°E)
Time: 00:47:52
(UTC+00:00)

BREEZE-M DEB (TANK) - Pass Details

Date: 12 January 2026
Orbit: 608 x 17104 km, 49.5° (Epoch: 16 February)

Event Time Altitude Azimuth Distance (km) Brightness Sun altitude
Rises 18:44:20 0° 274° (W) 3,789 8.4 -24.4°
Reaches altitude 10° 18:47:18 10° 275° (W) 2,311 7.0 -24.8°
Enters shadow 18:51:13 74° 279° (W) 640 3.1 -25.5°
